Change the Weather History Date:

Thursday, October 25, 2012

  Actual Average Record
Temperature  
Mean Temperature 49 °F 46 °F  
Max Temperature 62 °F 57 °F 76 °F (2011)
Min Temperature 36 °F 36 °F 22 °F (2013)
Degree Days  
Heating Degree Days 16 19  
Month to date heating degree days 285 353  
Since 1 July heating degree days 463 513  
Cooling Degree Days 0 0  
Month to date cooling degree days 8 10  
Year to date cooling degree days 1082 728  
Moisture  
Dew Point 45 °F    
Average Humidity 82    
Maximum Humidity 100    
Minimum Humidity 64    
Precipitation  
Precipitation 0.13 in 0.11 in 0.50 in (2000)
Month to date precipitation 1.38 1.97  
Sea Level Pressure  
Sea Level Pressure 29.80 in    
Wind  
Wind Speed 19 mph (NNW)    
Max Wind Speed 13 mph    
Max Gust Speed 17 mph    
Visibility 9 miles    
Events Rain , Thunderstorm    
T = Trace of Precipitation, MM = Missing Value Source: NWS Daily Summary

Daily Weather History Graph

Daily Weather History Graph

Search for Another Location

Airport or City:

Trip Planner

Search our weather history database for the weather conditions in past years. The results will help you decide how hot, cold, wet, or windy it might be!

Date:

Astronomy

Oct. 25, 2012 Rise Set
Actual Time 7:36 AM CDT 6:14 PM CDT
Civil Twilight 7:07 AM CDT 6:42 PM CDT
Nautical Twilight 6:35 AM CDT 7:15 PM CDT
Astronomical Twilight 6:02 AM CDT 7:47 PM CDT
Moon 4:03 PM CDT (10/25) 3:29 AM CDT (10/25)
Length of Visible Light 11h 34m
Length of Day
10h 37m
Waxing Gibbous, 84% of the Moon is Illuminated
Oct 25
Waxing Gibbous
Oct 29
Full
Nov 6
Last Quarter
Nov 13
New
Nov 20
First Quarter

Hourly Weather History & Observations

Time (CDT) Temp. Windchill Dew Point Humidity Pressure Visibility Wind Dir Wind Speed Gust Speed Precip Events Conditions
12:53 AM 63.0 °F - 61.0 °F 93% 29.63 in 8.0 mi WNW 10.4 mph 21.9 mph N/A   Overcast
1:28 AM 60.8 °F - 60.8 °F 100% 29.64 in 6.0 mi NW 15.0 mph - N/A   Overcast
2:27 AM 57.2 °F - 57.2 °F 100% 29.64 in 7.0 mi NNW 8.1 mph - N/A   Overcast
2:53 AM 57.9 °F - 57.0 °F 97% 29.62 in 8.0 mi NNW 5.8 mph - N/A   Overcast
3:00 AM 57.2 °F - 57.2 °F 100% 29.62 in 8.0 mi NNW 6.9 mph - N/A   Overcast
3:10 AM 57.2 °F - 55.4 °F 94% 29.62 in 9.0 mi NW 4.6 mph - N/A   Overcast
3:46 AM 55.4 °F - 55.4 °F 100% 29.59 in 10.0 mi NNE 3.5 mph - N/A   Scattered Clouds
3:53 AM 55.9 °F - 55.0 °F 97% 29.59 in 10.0 mi ENE 3.5 mph - N/A   Partly Cloudy
4:53 AM 55.9 °F - 55.0 °F 97% 29.55 in 9.0 mi East 5.8 mph - N/A   Mostly Cloudy
5:26 AM 57.2 °F - 55.4 °F 94% 29.59 in 10.0 mi North 3.5 mph - N/A Thunderstorm Overcast
5:37 AM 55.4 °F - 53.6 °F 94% 29.63 in 6.0 mi WNW 23.0 mph 29.9 mph 0.01 in Rain , Thunderstorm Rain
5:45 AM 55.4 °F - 53.6 °F 94% 29.63 in 9.0 mi WNW 20.7 mph 27.6 mph 0.01 in Rain Light Rain
5:53 AM 54.0 °F - 53.1 °F 97% 29.62 in 10.0 mi NW 19.6 mph 26.5 mph 0.01 in   Overcast
6:18 AM 51.8 °F - 51.8 °F 100% 29.60 in 10.0 mi North 15.0 mph - N/A   Overcast
6:53 AM 51.1 °F - 48.9 °F 92% 29.59 in 10.0 mi North 8.1 mph - N/A   Overcast
8:53 AM 46.9 °F - 46.0 °F 97% 29.67 in 7.0 mi NW 21.9 mph 26.5 mph 0.00 in Rain Light Rain
9:11 AM 46.4 °F 39.8 °F 44.6 °F 93% 29.68 in 4.0 mi NW 16.1 mph 24.2 mph 0.05 in Rain Heavy Rain
9:29 AM 44.6 °F 35.9 °F 44.6 °F 100% 29.71 in 7.0 mi NW 23.0 mph 31.1 mph 0.06 in Rain Light Rain
9:53 AM 45.0 °F 36.9 °F 43.0 °F 93% 29.71 in 8.0 mi NW 20.7 mph - 0.07 in Rain Light Rain
10:15 AM 44.6 °F 35.7 °F 42.8 °F 93% 29.72 in 10.0 mi NW 24.2 mph 32.2 mph 0.02 in Rain Light Rain
10:53 AM 43.0 °F 33.3 °F 41.0 °F 93% 29.74 in 10.0 mi NW 25.3 mph 33.4 mph 0.02 in Rain Light Rain
12:53 PM 39.9 °F 29.2 °F 36.0 °F 86% 29.85 in 10.0 mi NNW 25.3 mph 40.3 mph 0.00 in   Unknown
1:09 PM 39.2 °F 27.4 °F 37.4 °F 93% 29.85 in 10.0 mi NW 29.9 mph 35.7 mph N/A   Overcast
1:53 PM 39.9 °F 29.5 °F 37.0 °F 89% 29.88 in 8.0 mi NNW 24.2 mph 35.7 mph N/A   Overcast
2:16 PM 41.0 °F 30.7 °F 37.4 °F 87% 29.89 in 10.0 mi NW 25.3 mph 33.4 mph N/A   Overcast
2:53 PM 42.1 °F 32.1 °F 37.0 °F 82% 29.93 in 10.0 mi NW 25.3 mph 34.5 mph N/A   Overcast
3:53 PM 39.9 °F 29.0 °F 35.1 °F 83% 29.97 in 10.0 mi NW 26.5 mph 36.8 mph N/A   Overcast
5:53 PM 39.0 °F 28.5 °F 33.1 °F 79% 30.08 in 10.0 mi NW 23.0 mph 31.1 mph N/A   Overcast
6:53 PM 37.9 °F 27.6 °F 32.0 °F 79% 30.13 in 10.0 mi NW 20.7 mph 29.9 mph N/A   Overcast
7:53 PM 37.9 °F 27.1 °F 30.9 °F 76% 30.16 in 10.0 mi NW 23.0 mph 32.2 mph N/A   Overcast
8:53 PM 37.0 °F 25.1 °F 28.0 °F 70% 30.20 in 10.0 mi NNW 26.5 mph 38.0 mph N/A   Overcast
9:53 PM 37.0 °F 25.4 °F 27.0 °F 67% 30.22 in 10.0 mi NW 25.3 mph 35.7 mph N/A   Unknown
10:53 PM 37.0 °F 26.7 °F 27.0 °F 67% 30.25 in 10.0 mi NW 19.6 mph 31.1 mph N/A   Overcast
11:53 PM 37.0 °F 27.7 °F 27.0 °F 67% 30.27 in 10.0 mi NNW 16.1 mph 28.8 mph N/A   Overcast